Location: ????
(55.2778°N, 39.2433°E)
Time: 23:00:55
(UTC+00:00)

COSMOS 2441 - Pass Details

Date: 14 April 2024
Orbit: 705 x 730 km, 98.2° (Epoch: 23 May)

Event Time Altitude Azimuth Distance (km) Brightness Sun altitude
Rises 23:58:52 0° 15° (NNE) 3,168 8.9 -17.5°
Reaches altitude 10° 00:01:10 10° 15° (NNE) 2,241 7.9 -17.3°
Maximum altitude 00:06:06 86° 289° (WNW) 737 4.3 -16.9°
Enters shadow 00:08:53 26° 200° (SSW) 1,402 5.3 -16.6°
